TimeEDT,TemperatureF,Dew PointF,Humidity,Sea Level PressureIn,VisibilityMPH,Wind Direction,Wind SpeedMPH,Gust SpeedMPH,PrecipitationIn,Events,Conditions,WindDirDegrees,DateUTC
12:14 AM,77.0,75.2,94,30.12,10.0,ENE,6.9,-,N/A,,Mostly Cloudy,60,2013-08-26 04:14:00
12:31 AM,77.0,75.2,94,30.12,10.0,NE,4.6,-,N/A,,Scattered Clouds,50,2013-08-26 04:31:00
12:53 AM,77.0,75.0,94,30.12,10.0,NNE,4.6,-,N/A,,Clear,30,2013-08-26 04:53:00
1:53 AM,77.0,75.0,94,30.10,10.0,NNE,5.8,-,N/A,,Clear,30,2013-08-26 05:53:00
2:53 AM,77.0,75.0,94,30.08,10.0,ENE,4.6,-,N/A,,Clear,60,2013-08-26 06:53:00
3:53 AM,75.9,75.0,97,30.07,10.0,NE,5.8,-,N/A,,Partly Cloudy,40,2013-08-26 07:53:00
4:05 AM,75.2,75.2,100,30.06,10.0,NE,5.8,-,N/A,,Mostly Cloudy,40,2013-08-26 08:05:00
4:34 AM,77.0,75.2,94,30.07,10.0,ENE,3.5,-,N/A,,Scattered Clouds,60,2013-08-26 08:34:00
4:53 AM,77.0,75.0,94,30.08,10.0,Calm,Calm,-,N/A,,Scattered Clouds,0,2013-08-26 08:53:00
5:07 AM,77.0,75.2,94,30.07,10.0,Calm,Calm,-,N/A,,Scattered Clouds,0,2013-08-26 09:07:00
5:53 AM,75.9,75.0,97,30.08,10.0,NNE,8.1,-,N/A,,Partly Cloudy,20,2013-08-26 09:53:00
6:06 AM,75.2,75.2,100,30.08,10.0,NE,8.1,-,N/A,,Mostly Cloudy,40,2013-08-26 10:06:00
6:15 AM,75.2,75.2,100,30.08,10.0,NE,5.8,-,N/A,,Scattered Clouds,40,2013-08-26 10:15:00
6:53 AM,75.9,73.9,94,30.09,10.0,ENE,5.8,-,N/A,,Clear,60,2013-08-26 10:53:00
7:53 AM,75.9,75.0,97,30.09,10.0,NE,5.8,-,N/A,,Clear,50,2013-08-26 11:53:00
8:53 AM,77.0,75.0,94,30.10,10.0,NE,10.4,-,N/A,,Clear,50,2013-08-26 12:53:00
9:19 AM,78.8,75.2,89,30.10,10.0,NE,8.1,-,N/A,,Partly Cloudy,50,2013-08-26 13:19:00
9:53 AM,80.1,75.9,87,30.11,10.0,ENE,8.1,-,N/A,,Clear,70,2013-08-26 13:53:00
10:53 AM,82.9,75.9,79,30.10,10.0,NE,6.9,-,N/A,,Partly Cloudy,50,2013-08-26 14:53:00
11:53 AM,86.0,73.9,67,30.11,10.0,East,5.8,-,N/A,,Partly Cloudy,90,2013-08-26 15:53:00
12:53 PM,86.0,72.0,63,30.09,10.0,East,4.6,-,N/A,,Overcast,90,2013-08-26 16:53:00
1:53 PM,88.0,72.0,59,30.06,10.0,Variable,3.5,-,N/A,,Scattered Clouds,0,2013-08-26 17:53:00
2:53 PM,87.1,72.0,61,30.03,6.0,Calm,Calm,-,0.00,Rain,Light Rain,0,2013-08-26 18:53:00
3:31 PM,84.2,73.4,70,30.02,10.0,SSE,11.5,-,0.00,Thunderstorm,Thunderstorm,160,2013-08-26 19:31:00
3:37 PM,78.8,73.4,83,30.02,1.2,SE,12.7,19.6,0.00,Rain-Thunderstorm,Light Thunderstorms and Rain,140,2013-08-26 19:37:00
3:45 PM,75.2,73.4,94,30.03,0.5,East,10.4,20.7,0.20,Fog-Rain-Thunderstorm,Heavy Thunderstorms and Rain,80,2013-08-26 19:45:00
3:53 PM,75.0,73.9,96,30.04,0.2,SW,6.9,-,0.55,Fog-Rain-Thunderstorm,Heavy Thunderstorms and Rain,230,2013-08-26 19:53:00
3:58 PM,75.2,71.6,89,30.02,7.0,Variable,6.9,-,0.02,Rain-Thunderstorm,Light Thunderstorms and Rain,0,2013-08-26 19:58:00
4:53 PM,77.0,73.9,90,30.02,10.0,West,10.4,-,0.06,Thunderstorm,Thunderstorm,260,2013-08-26 20:53:00
5:53 PM,77.0,73.9,90,30.00,10.0,NW,5.8,-,0.00,Thunderstorm,Partly Cloudy,310,2013-08-26 21:53:00
6:20 PM,77.0,71.6,83,30.02,10.0,NNW,8.1,-,N/A,,Mostly Cloudy,330,2013-08-26 22:20:00
6:50 PM,75.2,73.4,94,30.04,4.0,SE,9.2,-,0.01,Rain-Thunderstorm,Light Rain,140,2013-08-26 22:50:00
6:53 PM,75.9,73.0,91,30.05,4.0,SSE,11.5,-,0.02,Rain-Thunderstorm,Light Rain,150,2013-08-26 22:53:00
7:16 PM,73.4,71.6,94,30.03,2.0,SSW,4.6,-,0.01,Rain,Rain,200,2013-08-26 23:16:00
7:23 PM,73.4,71.6,94,30.03,3.0,WSW,6.9,-,0.08,Rain,Rain,250,2013-08-26 23:23:00
7:53 PM,73.9,72.0,93,30.05,10.0,ENE,4.6,-,0.09,,Partly Cloudy,60,2013-08-26 23:53:00
8:01 PM,73.4,71.6,94,30.04,10.0,ENE,3.5,-,N/A,Thunderstorm,Scattered Clouds,70,2013-08-27 00:01:00
8:16 PM,73.4,71.6,94,30.04,10.0,Calm,Calm,-,0.00,,Partly Cloudy,0,2013-08-27 00:16:00
8:53 PM,73.9,72.0,93,30.05,10.0,North,3.5,-,0.00,,Clear,350,2013-08-27 00:53:00
9:53 PM,73.9,73.0,97,30.04,10.0,SE,3.5,-,N/A,,Clear,130,2013-08-27 01:53:00
10:53 PM,73.9,73.9,100,30.05,10.0,Calm,Calm,-,N/A,,Clear,0,2013-08-27 02:53:00
11:53 PM,73.9,73.0,97,30.06,10.0,Calm,Calm,-,N/A,,Clear,0,2013-08-27 03:53:00